Regional Weather Roundup
Issued by NWS Jackson, KY

Home | Current Version | Previous Version | Graphics & Text | Print | Product List | Glossary On
Versions: 1 2 3 4 5 6 7 8 9 10 11 12 13 14 15 16 17 18 19 20 21 22 23 24 25 26 27 28 29 30 31 32 33 34 35 36 37 38 39 40 41 42 43 44 45 46 47 48 49 50
742
ASUS43 KJKL 160510
RWRJKL

EAST KENTUCKY HOURLY WEATHER ROUNDUP
NATIONAL WEATHER SERVICE JACKSON KY
100 AM EDT MON OCT 16 2017

NOTE: "FAIR" INDICATES FEW OR NO CLOUDS BELOW 12,000 FEET WITH
NO SIGNIFICANT WEATHER AND/OR OBSTRUCTIONS TO VISIBILITY.

* THESE REPORTS ARE NOT UNDER NWS QUALITY CONTROL AND MAY NOT
  REPORT WEATHER SUCH AS PRECIPITATION AND FOG.

KYZ079-080-083-085-087-088-110-112-115-119-120-160600
...EASTERN KENTUCKY...

CITY           SKY/WX    TMP DP  RH WIND       PRES   REMARKS
JACKSON        CLOUDY    51  44  77 NW6       30.20R
LONDON         CLOUDY    52  44  74 N7G17     30.21R
SOMERSET*      CLOUDY    52  43  71 N8        30.24R
MONTICELLO*    CLOUDY    53  45  74 N20G29    30.24S
WILLIAMSBURG*  CLOUDY    50  48  93 NW8       30.21R
MIDDLESBORO*   CLOUDY    57  53  87 N8        30.17R
HARLAN APT*    CLOUDY    54  50  87 W9G21     30.16R
PIKE CO APT*   CLOUDY    50  49  97 N10G18    30.18R
BIG SANDY APT* CLOUDY    52  46  78 NW7       30.19R
MOREHEAD APT*  CLOUDY    54  45  71 W5        30.21S
$$

KYZ035-036-041-042-044-050-067-078-099-160600
...CENTRAL KENTUCKY...

CITY           SKY/WX    TMP DP  RH WIND       PRES   REMARKS
MT STERLING*   CLOUDY    52  45  76 NW3       30.23S
FLEMING/MASON* CLOUDY    52  45  77 W6        30.21S
DANVILLE*      CLOUDY    50  41  71 N7        30.25S
LEXINGTON      CLOUDY    53  43  68 NW5       30.23R
FRANKFORT      CLOUDY    53  42  66 W3        30.22S
LOUISVILLE     CLOUDY    55  42  61 NW9       30.24S
LEBANON*       CLOUDY    52  41  66 NW9       30.24S
GLASGOW*       CLOUDY    53  43  68 N7        30.25S
BOWLING GREEN  CLOUDY    55  44  66 VRB6      30.26R
$$

KYZ091>093-OHZ055-061-077-WVZ005-015-034-035-042-160600
...SOUTHERN OHIO/WEST VIRGINIA...

CITY           SKY/WX    TMP DP  RH WIND       PRES   REMARKS
COVINGTON      CLOUDY    52  46  80 NW8       30.21R
COLUMBUS       PTCLDY    51  44  77 NW13      30.14R
DAYTON         PTCLDY    48  46  93 NW9       30.20R
WILMINGTON     CLOUDY    52  46  80 NW13      30.18R
HUNTINGTON     CLOUDY    54  44  69 W3        30.17R
CHARLESTON     CLOUDY    54  47  77 W7        30.15R
PINEVILLE*     LGT RAIN  57  54  90 MISG      30.18R
BECKLEY        LGT RAIN  53  51  93 N13       30.12R FOG
BLUEFIELD      CLOUDY    56  54  93 W6        30.11R
LOGAN CO APT*  CLOUDY    50  46  87 NW5G12    30.17R
$$

VAZ002-007-008-TNZ017-027-036-066-071-160600
...SOUTHWEST VIRGINIA/EAST TENNESSEE...

CITY           SKY/WX    TMP DP  RH WIND       PRES   REMARKS
JONESVILLE*    CLOUDY    59  55  88 W5        30.15R
ABINGDON*      RAIN      62  60  93 NW6       30.09R
BRISTOL        LGT RAIN  63  63 100 NW7       30.08R
MORRISTOWN*    CLOUDY    61  59  94 NW7       30.12R
SEVIERVILLE*   CLOUDY    63  61  94 N8        30.12R FOG
KNOXVILLE      RAIN      61  60  97 N9        30.12R
LAFOLLETTE*    CLOUDY    55  52  88 N12G17    30.20R
OAK RIDGE      CLOUDY    60  55  83 VRB6      30.15R
CROSSVILLE     CLOUDY    52  49  89 N10       30.19R
NASHVILLE      MOCLDY    53  46  77 N7        30.26R
$$

...KEY TO REMARKS...
VSB - VISIBILITY IN MILES
WCI - WIND CHILL INDEX
HX  - HEAT INDEX

$$




USA.gov is the U.S. government's official web portal to all federal, state and local government web resources and services.